Weather History for East Milton, MA

Change the Weather History Date:

Friday, December 20, 2013

  Actual Average (KBOS) Record (KBOS)
Temperature  
Mean Temperature 43 °F 33 °F  
Max Temperature 51 °F 40 °F 63 °F (1957)
Min Temperature 35 °F 27 °F -11 °F (1942)
Degree Days  
Heating Degree Days 22 32  
Month to date heating degree days 570  
Since 1 July heating degree days 1625  
Cooling Degree Days 0 0  
Month to date cooling degree days 0  
Year to date cooling degree days 747  
Moisture  
Dew Point 30 °F    
Average Humidity 63    
Maximum Humidity 76    
Minimum Humidity 50    
Precipitation  
Precipitation 0.00 in 0.11 in 1.35 in (1936)
Month to date precipitation 2.52  
Year to date precipitation 42.51  
Sea Level Pressure  
Sea Level Pressure 30.03 in    
Wind  
Wind Speed 12 mph (South)    
Max Wind Speed 21 mph    
Max Gust Speed 25 mph    
T = Trace of Precipitation, MM = Missing Value Source: NWS Daily Summary

Daily Weather History Graph

Daily Weather History Graph

Search for Another Location

Airport:

Trip Planner

Search our weather history database for the weather conditions in past years. The results will help you decide how hot, cold, wet, or windy it might be!

Date:

Astronomy

Dec. 20, 2013 Rise Set
Actual Time 7:09 AM EST 4:15 PM EST
Civil Twilight 6:37 AM EST 4:46 PM EST
Nautical Twilight 6:02 AM EST 5:22 PM EST
Astronomical Twilight 5:27 AM EST 5:56 PM EST
Moon 7:36 PM EST (12/20) 8:58 AM EST (12/20)
Length of Visible Light 10h 09m
Length of Day
9h 05m
Waning Gibbous, 90% of the Moon is Illuminated
Dec 20
Waning Gibbous
Dec 25
Last Quarter
Jan 1
New
Jan 7
First Quarter
Jan 15
Full

Hourly Weather History & Observations

Time (EST) Temp. Windchill Dew Point Humidity Pressure Visibility Wind Dir Wind Speed Gust Speed Precip Events Conditions
12:54 AM 37.0 °F 30.4 °F 24.1 °F 59% 30.13 in - WSW 9.2 mph - N/A   Unknown
1:54 AM 37.9 °F 31.5 °F 25.0 °F 60% 30.13 in - West 9.2 mph - N/A   Unknown
2:54 AM 36.0 °F 31.1 °F 24.1 °F 62% 30.14 in - South 5.8 mph - N/A   Unknown
3:54 AM 37.0 °F 32.4 °F 24.1 °F 59% 30.14 in - South 5.8 mph - N/A   Unknown
4:54 AM 37.9 °F 33.5 °F 24.1 °F 57% 30.13 in - SSE 5.8 mph - N/A   Unknown
5:54 AM 37.9 °F 31.5 °F 25.0 °F 60% 30.13 in - SSE 9.2 mph - N/A   Unknown
6:54 AM 35.1 °F 25.5 °F 26.1 °F 70% 30.12 in - SSE 15.0 mph - N/A   Unknown
7:54 AM 36.0 °F 27.1 °F 28.9 °F 76% 30.11 in - SSE 13.8 mph - N/A   Unknown
8:54 AM 39.0 °F 30.3 °F 30.9 °F 73% 30.10 in - SSE 16.1 mph - N/A   Unknown
9:54 AM 42.1 °F 34.9 °F 34.0 °F 73% 30.08 in - South 13.8 mph - N/A   Unknown
10:54 AM 46.0 °F 40.2 °F 36.0 °F 68% 30.04 in - South 12.7 mph 20.7 mph N/A   Unknown
11:54 AM 50.0 °F - 34.0 °F 54% 29.98 in - South 15.0 mph - N/A   Unknown
12:54 PM 50.0 °F - 32.0 °F 50% 29.96 in - SSW 20.7 mph 25.3 mph N/A   Unknown
1:54 PM 51.1 °F - 33.1 °F 50% 29.95 in - South 13.8 mph - N/A   Unknown
2:54 PM 48.9 °F - 33.1 °F 54% 29.95 in - SSW 12.7 mph - N/A   Unknown
3:54 PM 46.9 °F - 33.1 °F 59% 29.95 in - South 18.4 mph 24.2 mph N/A   Unknown
4:54 PM 45.0 °F 37.4 °F 32.0 °F 60% 29.94 in - South 18.4 mph - N/A   Unknown
5:54 PM 44.1 °F 36.8 °F 32.0 °F 63% 29.96 in - SSW 16.1 mph - N/A   Unknown
6:54 PM 43.0 °F 34.8 °F 32.0 °F 65% 29.97 in - South 18.4 mph 25.3 mph N/A   Unknown
7:54 PM 43.0 °F 34.5 °F 32.0 °F 65% 29.97 in - SSW 19.6 mph 25.3 mph N/A   Unknown
8:54 PM 43.0 °F 35.4 °F 32.0 °F 65% 29.98 in - SSW 16.1 mph 25.3 mph N/A   Unknown
9:54 PM 43.0 °F 35.1 °F 32.0 °F 65% 29.99 in - SSW 17.3 mph - N/A   Unknown
10:54 PM 42.1 °F 33.9 °F 33.1 °F 70% 29.98 in - SSW 17.3 mph - N/A   Unknown
11:54 PM 42.1 °F 33.6 °F 33.1 °F 70% 29.96 in - SSW 18.4 mph - N/A   Unknown